Find Local Weather

World > North America > United States > Wisconsin

Appleton, Wisconsin Regional Weather

Lat: 44.26N, Lon: 88.4W
Wx Zone: WIZ038
Warning FLW WEATHER ALERT - (More Info. Click Here) Warning
Feedback
Expires:201808142000;;061446
ASUS43 KMKX 141921
RWRWI 

WISCONSIN REGIONAL WEATHER ROUNDUP
NATIONAL WEATHER SERVICE MILWAUKEE/SULLIVAN WI
200 PM CDT TUE AUG 14 2018

NOTE: "FAIR" INDICATES FEW OR NO CLOUDS BELOW 12,000 FEET WITH NO
SIGNIFICANT WEATHER AND/OR OBSTRUCTIONS TO VISIBILITY.


WIZ011>013-019>022-031-037>040-048>050-142000-
NORTHEAST WISCONSIN
  
CITY           SKY/WX    TMP DP  RH WIND       PRES   REMARKS
ANTIGO         PTSUNNY   86  68  53 SW12G18   29.95F HX  89           
SHAWANO        FAIR      89  67  48 SW8       29.93F HX  92           
OCONTO         FAIR      89  66  47 W12G17    29.90F HX  91           
STURGEON BAY   FAIR      88  63  43 W14       29.93S HX  89           
GREEN BAY      FAIR      87  67  51 SW8       29.93S HX  90           
MANITOWOC      FAIR      86  60  41 W13       29.94F HX  86           
APPLETON       MOSUNNY   84  57  39 SW10      29.94F HX  83           
CLINTONVILLE   FAIR      88  61  39 SW12      29.94S HX  88           
OSHKOSH        FAIR      86  65  49 SW10      29.95F HX  88           
$$
 

SKY/WX - Weather  TMP - Temperature  DP - Dewpoint  RH - Relative Humidity
WIND - Wind Direction/Speed PRES - Barometric Pressure